"Pseudo-MPEC" for P11bwvQ
Created 2021 Jan 21 11:07:17 UT using Find_Orb
Click here for an explanation of pseudo-MPECs
Astrometry: P11bwvQ C2021 01 0630toAeIU8g/4cDjyi15e#-qqB=lFiCx-rqN]t^
Astrometryubmc
F51 P11bwvQ C2021 01 06Kl-$[9vGqmCh_iW]g4D9_MPZ1KBX
redacted;hGJuL_n?_jf07dy
F51 P11bwvQ C2021 01 06Q-04u
clickx2
hereh^_?rJDn]3o-bAG0a,'=lkpCyZ1NY
forCq]5
F51 P11bwvQ C2021 01 06CaZkDm`,/(S@C9t$0fJ
explanationcI;tQNrGy/]Bp=3odM!MU.
F51 Station data: (F51) Pan-STARRS 1, Haleakala (N20.707235 W156.255910) US/Hawaii. Observers N. Primak, A. Schultz, S. Watters, J. Thiel, T. Goggia. Measurer PS1 Science Consortium. 1.8-m Ritchey-Chrétien + CCD. Orbital elements: P11bwvQ Perihelion 2020 Oct 7.675483 +/- 22.5261 TT = 16:12:41 (JD 2459130.175483) Epoch 2021 Jan 6.0 TT = JDT 2459220.5 Earth MOID: 0.0300 AutoNEOCP M 92.70050488 +/- 57.754619 (J2000 ecliptic) n 1.02630502 +/- 0.820569 Peri. 334.75180 +/- 88.331658 a 0.97338596 +/- 0.518829 Node 20.31554 +/- 49.754331 e 0.1022702 +/- 0.219313 Incl. 3.04865 +/- 45.727229 P 0.96/350.77d H 22.7 G 0.15 U 12.6 SR q 0.87383755 +/- 0.323962 Q 1.07293437 +/- 15.061 From 4 observations 2021 Jan. 6 (44.8 min); mean residual 0".10
Residuals in arcseconds: 210106 F51 .14- .02+ 210106 F51 .14+ .02+ 210106 F51 .14+ .04- 210106 F51 .14- .00 Ephemerides (geocentric): Date (UTC) HH RA Dec delta r elong mag " sig PA ---- -- -- -- ------------- ----------- ------ ------ ----- --- ---- --- 2021 01 21 11 01 57 52.032 +36 41 12.26 .13757 1.0138 98.6 21.0 991' 14 2021 01 21 12 01 58 09.137 +36 41 52.31 .13764 1.0138 98.6 21.0 992' 14 2021 01 21 13 01 58 26.236 +36 42 32.19 .13770 1.0139 98.6 21.0 994' 14 2021 01 21 14 01 58 43.328 +36 43 11.91 .13777 1.0139 98.6 21.0 995' 14 2021 01 21 15 01 59 00.415 +36 43 51.45 .13783 1.0140 98.6 21.0 997' 14 2021 01 21 16 01 59 17.495 +36 44 30.83 .13790 1.0141 98.7 21.0 998' 14 2021 01 21 17 01 59 34.570 +36 45 10.04 .13797 1.0141 98.7 21.0 17d 14 2021 01 21 18 01 59 51.638 +36 45 49.08 .13803 1.0142 98.7 21.0 17d 14 2021 01 21 19 02 00 08.699 +36 46 27.96 .13810 1.0143 98.7 21.0 17d 14 2021 01 21 20 02 00 25.755 +36 47 06.67 .13816 1.0143 98.7 21.0 17d 14 2021 01 21 21 02 00 42.804 +36 47 45.21 .13823 1.0144 98.8 21.0 17d 14 2021 01 21 22 02 00 59.847 +36 48 23.59 .13830 1.0145 98.8 21.0 17d 14 2021 01 21 23 02 01 16.884 +36 49 01.80 .13836 1.0145 98.8 21.0 17d 14 2021 01 22 00 02 01 33.914 +36 49 39.85 .13843 1.0146 98.8 21.0 17d 14 2021 01 22 01 02 01 50.938 +36 50 17.73 .13850 1.0147 98.8 21.0 17d 14 2021 01 22 02 02 02 07.956 +36 50 55.44 .13856 1.0147 98.8 21.0 17d 14 2021 01 22 03 02 02 24.967 +36 51 32.99 .13863 1.0148 98.9 21.0 17d 14 2021 01 22 04 02 02 41.972 +36 52 10.38 .13870 1.0149 98.9 21.0 17d 14 2021 01 22 05 02 02 58.971 +36 52 47.60 .13876 1.0149 98.9 21.0 17d 14 2021 01 22 06 02 03 15.963 +36 53 24.65 .13883 1.0150 98.9 21.0 17d 14 2021 01 22 07 02 03 32.949 +36 54 01.54 .13890 1.0151 98.9 21.0 17d 14 2021 01 22 08 02 03 49.928 +36 54 38.27 .13896 1.0151 99.0 21.0 17d 14 2021 01 22 09 02 04 06.901 +36 55 14.84 .13903 1.0152 99.0 21.0 17d 14 2021 01 22 10 02 04 23.867 +36 55 51.24 .13910 1.0152 99.0 21.0 17d 14 2021 01 22 11 02 04 40.826 +36 56 27.47 .13917 1.0153 99.0 21.0 17d 14 2021 01 22 12 02 04 57.780 +36 57 03.55 .13923 1.0154 99.0 21.0 17d 14 2021 01 22 13 02 05 14.726 +36 57 39.46 .13930 1.0154 99.0 21.0 17d 14 2021 01 22 14 02 05 31.666 +36 58 15.21 .13937 1.0155 99.1 21.0 17d 14 2021 01 22 15 02 05 48.600 +36 58 50.79 .13944 1.0156 99.1 21.0 17d 14 2021 01 22 16 02 06 05.527 +36 59 26.22 .13950 1.0156 99.1 21.0 17d 14 2021 01 22 17 02 06 22.447 +37 00 01.48 .13957 1.0157 99.1 21.0 17d 14 2021 01 22 18 02 06 39.360 +37 00 36.58 .13964 1.0158 99.1 21.0 17d 14 2021 01 22 19 02 06 56.267 +37 01 11.52 .13971 1.0158 99.1 21.0 17d 14 2021 01 22 20 02 07 13.168 +37 01 46.29 .13978 1.0159 99.2 21.0 17d 14 2021 01 22 21 02 07 30.061 +37 02 20.91 .13984 1.0160 99.2 21.0 17d 14 2021 01 22 22 02 07 46.948 +37 02 55.37 .13991 1.0160 99.2 21.0 17d 14 2021 01 22 23 02 08 03.828 +37 03 29.66 .13998 1.0161 99.2 21.0 17d 14 2021 01 23 00 02 08 20.702 +37 04 03.79 .14005 1.0161 99.2 21.0 17d 14 2021 01 23 01 02 08 37.568 +37 04 37.77 .14012 1.0162 99.2 21.0 17d 14 2021 01 23 02 02 08 54.428 +37 05 11.58 .14018 1.0163 99.3 21.0 17d 14 2021 01 23 03 02 09 11.281 +37 05 45.24 .14025 1.0163 99.3 21.0 17d 14 2021 01 23 04 02 09 28.127 +37 06 18.73 .14032 1.0164 99.3 21.0 17d 14 2021 01 23 05 02 09 44.967 +37 06 52.07 .14039 1.0165 99.3 21.0 17d 14 2021 01 23 06 02 10 01.799 +37 07 25.24 .14046 1.0165 99.3 21.0 17d 14 2021 01 23 07 02 10 18.625 +37 07 58.26 .14053 1.0166 99.4 21.0 17d 14 2021 01 23 08 02 10 35.444 +37 08 31.12 .14060 1.0167 99.4 21.0 17d 14 2021 01 23 09 02 10 52.255 +37 09 03.82 .14067 1.0167 99.4 21.0 17d 14 2021 01 23 10 02 11 09.060 +37 09 36.36 .14074 1.0168 99.4 21.0 18d 14